| time (UTC) | temp F | wind direction | speed knots | gust knots | rain 1hr in | rain 24hr in | rain mn in | humidity % | barometer mb |
| 20260507142718 | 57 | 330 | 4.3 | 9.6 | 0.00 | 0.00 | 0.00 | 49 | 1009.6 |
| 20260507142219 | 57 | 323 | 4.3 | 9.6 | 0.00 | 0.00 | 0.00 | 49 | 1009.4 |
| 20260507141718 | 56 | 320 | 3.5 | 8.7 | 0.00 | 0.00 | 0.00 | 50 | 1009.3 |
| 20260507141218 | 56 | 320 | 3.5 | 8.7 | 0.00 | 0.00 | 0.00 | 50 | 1009.4 |
| 20260507140223 | 56 | 331 | 3.5 | 7.8 | 0.00 | 0.00 | 0.00 | 52 | 1009.4 |
| 20260507135715 | 55 | 310 | 4.3 | 9.6 | 0.00 | 0.00 | 0.00 | 52 | 1009.3 |
| 20260507135215 | 55 | 328 | 5.2 | 9.6 | 0.00 | 0.00 | 0.00 | 52 | 1009.4 |
| 20260507134717 | 55 | 316 | 5.2 | 9.6 | 0.00 | 0.00 | 0.00 | 52 | 1009.3 |
| 20260507133719 | 54 | 316 | 5.2 | 9.6 | 0.00 | 0.00 | 0.00 | 54 | 1009.1 |
| 20260507133217 | 54 | 312 | 3.5 | 7.8 | 0.00 | 0.00 | 0.00 | 54 | 1009.1 |
| 20260507132216 | 53 | 305 | 3.5 | 7.8 | 0.00 | 0.00 | 0.00 | 56 | 1009.4 |
| 20260507131718 | 52 | 330 | 3.5 | 7.8 | 0.00 | 0.00 | 0.00 | 57 | 1009.2 |
| 20260507131216 | 52 | 334 | 3.5 | 7.8 | 0.00 | 0.00 | 0.00 | 59 | 1009.1 |
| 20260507130210 | 50 | 326 | 3.5 | 7.8 | 0.00 | 0.00 | 0.00 | 61 | 1008.8 |
| 20260507125711 | 50 | 339 | 2.6 | 6.1 | 0.00 | 0.00 | 0.00 | 62 | 1009.1 |
| 20260507125211 | 50 | 318 | 1.7 | 5.2 | 0.00 | 0.00 | 0.00 | 63 | 1009.2 |
| 20260507124213 | 49 | 339 | 1.7 | 5.2 | 0.00 | 0.00 | 0.00 | 64 | 1009.1 |
| 20260507123711 | 49 | 336 | 1.7 | 5.2 | 0.00 | 0.00 | 0.00 | 65 | 1009.1 |
| 20260507123208 | 49 | 314 | 0.9 | 4.3 | 0.00 | 0.00 | 0.00 | 65 | 1009.2 |
| 20260507122708 | 49 | 297 | 0.9 | 4.3 | 0.00 | 0.00 | 0.00 | 65 | 1009.2 |
| 20260507121209 | 50 | 308 | 1.7 | 3.5 | 0.00 | 0.00 | 0.00 | 65 | 1008.8 |
| 20260507120707 | 50 | 309 | 1.7 | 3.5 | 0.00 | 0.00 | 0.00 | 65 | 1008.8 |
| 20260507120211 | 51 | 340 | 0.9 | 3.5 | 0.00 | 0.00 | 0.00 | 65 | 1008.8 |
| 20260507115654 | 51 | 302 | 0.9 | 2.6 | 0.00 | 0.00 | 0.00 | 64 | 1009.0 |
| 20260507115157 | 52 | 298 | 1.7 | 3.5 | 0.00 | 0.00 | 0.00 | 64 | 1008.8 |
| 20260507114155 | 52 | 299 | 2.6 | 6.1 | 0.00 | 0.00 | 0.00 | 63 | 1008.5 |
| 20260507113656 | 53 | 289 | 2.6 | 7.8 | 0.00 | 0.00 | 0.00 | 63 | 1008.4 |
| 20260507113156 | 53 | 292 | 3.5 | 7.8 | 0.00 | 0.00 | 0.00 | 62 | 1008.3 |
| 20260507112654 | 53 | 300 | 2.6 | 7.0 | 0.00 | 0.00 | 0.00 | 62 | 1008.1 |
| 20260507112156 | 53 | 311 | 2.6 | 7.0 | 0.00 | 0.00 | 0.00 | 63 | 1008.0 |
| 20260507111659 | 53 | 310 | 2.6 | 5.2 | 0.00 | 0.00 | 0.00 | 63 | 1008.0 |
| 20260507111156 | 52 | 300 | 2.6 | 5.2 | 0.00 | 0.00 | 0.00 | 63 | 1007.9 |
| 20260507110656 | 52 | 291 | 1.7 | 5.2 | 0.00 | 0.00 | 0.00 | 64 | 1008.0 |
| 20260507110157 | 52 | 296 | 1.7 | 4.3 | 0.00 | 0.00 | 0.00 | 64 | 1008.1 |
| 20260507105156 | 52 | 302 | 1.7 | 5.2 | 0.00 | 0.00 | 0.00 | 64 | 1008.0 |
| 20260507104658 | 52 | 303 | 1.7 | 4.3 | 0.00 | 0.00 | 0.00 | 64 | 1008.0 |
| 20260507104154 | 52 | 300 | 1.7 | 4.3 | 0.00 | 0.00 | 0.00 | 64 | 1007.9 |
| 20260507103654 | 52 | 294 | 1.7 | 3.5 | 0.00 | 0.00 | 0.00 | 64 | 1007.9 |
| 20260507103154 | 52 | 270 | 1.7 | 3.5 | 0.00 | 0.00 | 0.00 | 64 | 1007.9 |
| 20260507102159 | 52 | 295 | 1.7 | 3.5 | 0.00 | 0.00 | 0.00 | 64 | 1007.9 |
| 20260507101654 | 52 | 295 | 1.7 | 3.5 | 0.00 | 0.00 | 0.00 | 64 | 1007.9 |
| 20260507101154 | 52 | 326 | 0.9 | 3.5 | 0.00 | 0.00 | 0.00 | 64 | 1007.9 |
| 20260507100653 | 52 | 287 | 0.9 | 3.5 | 0.00 | 0.00 | 0.00 | 64 | 1007.9 |
| 20260507100154 | 52 | 313 | 0.9 | 3.5 | 0.00 | 0.00 | 0.00 | 64 | 1007.8 |
| 20260507095654 | 52 | 279 | 0.9 | 2.6 | 0.00 | 0.00 | 0.00 | 64 | 1007.8 |
| 20260507095202 | 52 | 274 | 1.7 | 3.5 | 0.00 | 0.00 | 0.00 | 64 | 1007.9 |
| 20260507094656 | 53 | 305 | 1.7 | 3.5 | 0.00 | 0.00 | 0.00 | 63 | 1008.0 |
| 20260507094154 | 53 | 264 | 1.7 | 4.3 | 0.00 | 0.00 | 0.00 | 63 | 1008.0 |
| 20260507093655 | 53 | 246 | 1.7 | 4.3 | 0.00 | 0.00 | 0.00 | 62 | 1008.0 |
| 20260507093153 | 53 | 232 | 1.7 | 3.5 | 0.00 | 0.00 | 0.00 | 62 | 1007.9 |
| 20260507092654 | 53 | 245 | 1.7 | 4.3 | 0.00 | 0.00 | 0.00 | 62 | 1007.8 |
| 20260507092151 | 53 | 289 | 1.7 | 4.3 | 0.00 | 0.00 | 0.00 | 62 | 1007.8 |
| 20260507090658 | 53 | 221 | 1.7 | 3.5 | 0.00 | 0.00 | 0.00 | 63 | 1007.9 |
| 20260507090152 | 53 | 209 | 1.7 | 3.5 | 0.00 | 0.00 | 0.00 | 63 | 1007.8 |
| 20260507085736 | 53 | 234 | 1.7 | 4.3 | 0.00 | 0.00 | 0.00 | 63 | 1007.8 |
| 20260507085151 | 53 | 216 | 1.7 | 6.1 | 0.00 | 0.00 | 0.00 | 62 | 1007.8 |
| 20260507084652 | 53 | 207 | 2.6 | 6.1 | 0.00 | 0.00 | 0.00 | 62 | 1007.8 |
| 20260507084149 | 53 | 260 | 2.6 | 6.1 | 0.00 | 0.00 | 0.00 | 62 | 1007.7 |
| 20260507083653 | 54 | 269 | 1.7 | 5.2 | 0.00 | 0.00 | 0.00 | 61 | 1007.7 |
| 20260507081648 | 54 | 235 | 3.5 | 6.1 | 0.00 | 0.00 | 0.00 | 61 | 1007.7 |
| 20260507081148 | 54 | 218 | 3.5 | 6.1 | 0.00 | 0.00 | 0.00 | 61 | 1007.7 |
| 20260507075648 | 54 | 223 | 3.5 | 7.0 | 0.00 | 0.00 | 0.00 | 62 | 1007.8 |
| 20260507075149 | 54 | 232 | 3.5 | 7.8 | 0.00 | 0.00 | 0.00 | 62 | 1007.7 |
| 20260507074649 | 54 | 222 | 4.3 | 7.8 | 0.00 | 0.00 | 0.00 | 62 | 1007.7 |
| 20260507074153 | 54 | 228 | 4.3 | 7.8 | 0.00 | 0.00 | 0.00 | 62 | 1007.8 |
| 20260507073647 | 54 | 228 | 3.5 | 7.8 | 0.00 | 0.00 | 0.00 | 62 | 1007.9 |
| 20260507073147 | 54 | 231 | 3.5 | 7.8 | 0.00 | 0.00 | 0.00 | 63 | 1007.9 |
| 20260507072645 | 54 | 237 | 3.5 | 7.8 | 0.00 | 0.00 | 0.00 | 63 | 1007.9 |
| 20260507072146 | 55 | 167 | 3.5 | 7.0 | 0.00 | 0.00 | 0.00 | 62 | 1007.9 |
| 20260507071651 | 55 | 209 | 2.6 | 5.2 | 0.00 | 0.00 | 0.00 | 63 | 1007.9 |
| 20260507071146 | 55 | 206 | 2.6 | 6.1 | 0.00 | 0.00 | 0.00 | 63 | 1007.8 |
| 20260507070647 | 55 | 218 | 2.6 | 6.1 | 0.00 | 0.00 | 0.00 | 62 | 1007.9 |
| 20260507070147 | 55 | 214 | 2.6 | 5.2 | 0.00 | 0.00 | 0.00 | 63 | 1008.0 |
| 20260507065646 | 55 | 180 | 2.6 | 5.2 | 0.00 | 0.00 | 0.00 | 63 | 1007.9 |
| 20260507065151 | 55 | 219 | 1.7 | 5.2 | 0.00 | 0.00 | 0.00 | 62 | 1008.0 |
| 20260507064647 | 55 | 190 | 1.7 | 3.5 | 0.00 | 0.00 | 0.00 | 62 | 1007.9 |
| 20260507064146 | 55 | 232 | 1.7 | 3.5 | 0.00 | 0.00 | 0.00 | 61 | 1007.8 |
| 20260507063647 | 55 | 223 | 1.7 | 3.5 | 0.00 | 0.00 | 0.00 | 63 | 1007.9 |
| 20260507063146 | 55 | 238 | 1.7 | 2.6 | 0.00 | 0.00 | 0.00 | 63 | 1007.9 |
| 20260507061648 | 55 | 328 | 1.7 | 4.3 | 0.00 | 0.00 | 0.00 | 61 | 1008.4 |
| 20260507061143 | 56 | 347 | 1.7 | 3.5 | 0.00 | 0.00 | 0.00 | 60 | 1008.3 |
| 20260507060145 | 56 | 284 | 1.7 | 3.5 | 0.00 | 0.00 | 0.00 | 59 | 1008.1 |
| 20260507055645 | 56 | 297 | 1.7 | 3.5 | 0.00 | 0.00 | 0.00 | 59 | 1008.1 |
| 20260507055148 | 55 | 324 | 1.7 | 3.5 | 0.00 | 0.00 | 0.00 | 59 | 1008.0 |
| 20260507054144 | 55 | 298 | 0.9 | 3.5 | 0.00 | 0.00 | 0.00 | 59 | 1007.8 |
| 20260507053643 | 55 | 340 | 1.7 | 4.3 | 0.00 | 0.00 | 0.00 | 60 | 1007.9 |
| 20260507052142 | 55 | 308 | 1.7 | 3.5 | 0.00 | 0.00 | 0.00 | 61 | 1008.2 |
| 20260507051642 | 55 | 291 | 0.9 | 3.5 | 0.00 | 0.00 | 0.00 | 60 | 1008.2 |
| 20260507051143 | 55 | 328 | 0.9 | 1.7 | 0.00 | 0.00 | 0.00 | 59 | 1008.3 |
| 20260507050142 | 55 | 0 | 0.9 | 2.6 | 0.00 | 0.00 | 0.00 | 59 | 1008.2 |
| 20260507045639 | 55 | 346 | 0.9 | 1.7 | 0.00 | 0.00 | 0.00 | 58 | 1008.2 |
| 20260507044137 | 56 | 13 | 0.9 | 2.6 | 0.00 | 0.00 | 0.00 | 57 | 1007.9 |
| 20260507043636 | 56 | 357 | 0.9 | 2.6 | 0.00 | 0.00 | 0.00 | 57 | 1007.9 |
| 20260507043137 | 56 | 28 | 0.9 | 1.7 | 0.00 | 0.00 | 0.00 | 56 | 1008.0 |
| 20260507042137 | 57 | 322 | 0.9 | 2.6 | 0.00 | 0.00 | 0.00 | 56 | 1007.8 |
| 20260507041636 | 57 | 309 | 0.9 | 2.6 | 0.00 | 0.00 | 0.00 | 55 | 1007.8 |
| 20260507041137 | 58 | 0 | 1.7 | 2.6 | 0.00 | 0.00 | 0.00 | 55 | 1007.9 |
| 20260507040643 | 58 | 268 | 1.7 | 4.3 | 0.00 | 0.00 | 0.00 | 55 | 1007.8 |
| 20260507035634 | 58 | 240 | 1.7 | 6.1 | 0.00 | 0.00 | 0.00 | 53 | 1007.7 |
| 20260507034141 | 60 | 233 | 2.6 | 5.2 | 0.00 | 0.00 | 0.00 | 49 | 1007.1 |
| 20260507033635 | 60 | 212 | 2.6 | 7.0 | 0.00 | 0.00 | 0.00 | 49 | 1006.9 |
| 20260507033137 | 60 | 158 | 3.5 | 7.0 | 0.00 | 0.00 | 0.00 | 49 | 1006.9 |
| 20260507032635 | 61 | 145 | 3.5 | 6.1 | 0.00 | 0.00 | 0.00 | 47 | 1007.2 |
| 20260507032135 | 62 | 138 | 2.6 | 6.1 | 0.00 | 0.00 | 0.00 | 42 | 1006.8 |
| 20260507031637 | 62 | 222 | 1.7 | 5.2 | 0.00 | 0.00 | 0.00 | 40 | 1007.7 |
| 20260507031137 | 62 | 288 | 2.6 | 5.2 | 0.00 | 0.00 | 0.00 | 38 | 1007.7 |
| 20260507030132 | 62 | 310 | 1.7 | 7.0 | 0.00 | 0.00 | 0.00 | 37 | 1007.5 |
| 20260507025630 | 62 | 216 | 2.6 | 7.8 | 0.00 | 0.00 | 0.00 | 37 | 1007.3 |
| 20260507025131 | 62 | 139 | 3.5 | 7.8 | 0.00 | 0.00 | 0.00 | 36 | 1007.2 |
| 20260507024634 | 62 | 225 | 3.5 | 9.6 | 0.00 | 0.00 | 0.00 | 37 | 1007.2 |
| 20260507024130 | 62 | 281 | 4.3 | 13.0 | 0.00 | 0.00 | 0.00 | 38 | 1007.3 |
| 20260507023630 | 62 | 226 | 4.3 | 13.0 | 0.00 | 0.00 | 0.00 | 38 | 1007.1 |
| 20260507023132 | 62 | 253 | 2.6 | 7.0 | 0.00 | 0.00 | 0.00 | 36 | 1007.5 |
| 20260507022630 | 62 | 152 | 2.6 | 5.2 | 0.00 | 0.00 | 0.00 | 38 | 1007.6 |
| 20260507021627 | 63 | 144 | 1.7 | 6.1 | 0.00 | 0.00 | 0.00 | 36 | 1008.5 |
| 20260507021126 | 63 | 211 | 1.7 | 6.1 | 0.00 | 0.00 | 0.00 | 32 | 1007.6 |
| 20260507020624 | 63 | 117 | 2.6 | 6.1 | 0.00 | 0.00 | 0.00 | 31 | 1007.3 |
| 20260507020126 | 64 | 174 | 1.7 | 6.1 | 0.00 | 0.00 | 0.00 | 31 | 1007.0 |
| 20260507015624 | 64 | 164 | 1.7 | 5.2 | 0.00 | 0.00 | 0.00 | 31 | 1006.9 |
| 20260507015129 | 64 | 208 | 2.6 | 7.8 | 0.00 | 0.00 | 0.00 | 31 | 1006.8 |
| 20260507014625 | 64 | 147 | 3.5 | 8.7 | 0.00 | 0.00 | 0.00 | 31 | 1006.5 |
| 20260507014124 | 64 | 171 | 3.5 | 8.7 | 0.00 | 0.00 | 0.00 | 31 | 1006.4 |
| 20260507013624 | 64 | 153 | 3.5 | 7.8 | 0.00 | 0.00 | 0.00 | 31 | 1006.3 |
| 20260507013125 | 65 | 143 | 4.3 | 7.8 | 0.00 | 0.00 | 0.00 | 30 | 1006.3 |
| 20260507012626 | 65 | 132 | 4.3 | 7.8 | 0.00 | 0.00 | 0.00 | 30 | 1006.2 |
| 20260507011623 | 65 | 131 | 2.6 | 5.2 | 0.00 | 0.00 | 0.00 | 30 | 1006.3 |
| 20260507011122 | 65 | 138 | 3.5 | 6.1 | 0.00 | 0.00 | 0.00 | 30 | 1006.4 |
| 20260507010622 | 65 | 146 | 3.5 | 6.1 | 0.00 | 0.00 | 0.00 | 30 | 1006.3 |
| 20260507010125 | 65 | 103 | 3.5 | 6.1 | 0.00 | 0.00 | 0.00 | 30 | 1006.2 |
| 20260507005623 | 65 | 116 | 3.5 | 7.8 | 0.00 | 0.00 | 0.00 | 30 | 1006.2 |
| 20260507005123 | 66 | 132 | 3.5 | 7.8 | 0.00 | 0.00 | 0.00 | 29 | 1006.2 |
| 20260507004124 | 67 | 184 | 2.6 | 6.1 | 0.00 | 0.00 | 0.00 | 29 | 1006.1 |
| 20260507003627 | 67 | 67 | 2.6 | 6.1 | 0.00 | 0.00 | 0.00 | 29 | 1006.1 |
| 20260507003123 | 67 | 152 | 2.6 | 6.1 | 0.00 | 0.00 | 0.00 | 29 | 1006.0 |
| 20260507002623 | 67 | 84 | 2.6 | 7.0 | 0.00 | 0.00 | 0.00 | 29 | 1005.8 |
| 20260507002122 | 67 | 146 | 3.5 | 7.0 | 0.00 | 0.00 | 0.00 | 29 | 1005.8 |
| 20260507001126 | 68 | 96 | 2.6 | 6.1 | 0.00 | 0.00 | 0.00 | 29 | 1005.8 |
| 20260507000622 | 68 | 71 | 2.6 | 6.1 | 0.00 | 0.00 | 0.00 | 28 | 1006.0 |
| 20260507000122 | 68 | 78 | 2.6 | 6.1 | 0.00 | 0.00 | 0.00 | 28 | 1005.8 |
| 20260506235622 | 68 | 120 | 2.6 | 6.1 | 0.00 | 0.00 | 0.00 | 28 | 1005.8 |
| 20260506234625 | 68 | 54 | 1.7 | 7.8 | 0.00 | 0.00 | 0.00 | 28 | 1005.8 |
| 20260506234123 | 68 | 58 | 1.7 | 7.8 | 0.00 | 0.00 | 0.00 | 28 | 1005.8 |
| 20260506233618 | 68 | 42 | 2.6 | 7.8 | 0.00 | 0.00 | 0.00 | 28 | 1005.7 |
| 20260506233120 | 68 | 76 | 3.5 | 9.6 | 0.00 | 0.00 | 0.00 | 29 | 1005.7 |
| 20260506232620 | 68 | 111 | 3.5 | 9.6 | 0.00 | 0.00 | 0.00 | 28 | 1006.0 |
| 20260506232120 | 69 | 107 | 3.5 | 9.6 | 0.00 | 0.00 | 0.00 | 28 | 1005.8 |
| 20260506231626 | 69 | 135 | 2.6 | 7.0 | 0.00 | 0.00 | 0.00 | 27 | 1005.7 |
| 20260506231121 | 69 | 98 | 2.6 | 7.0 | 0.00 | 0.00 | 0.00 | 28 | 1005.7 |
| 20260506230621 | 69 | 129 | 2.6 | 7.8 | 0.00 | 0.00 | 0.00 | 27 | 1005.6 |
| 20260506230120 | 68 | 64 | 3.5 | 7.8 | 0.00 | 0.00 | 0.00 | 28 | 1005.6 |
| 20260506225620 | 68 | 93 | 3.5 | 7.8 | 0.00 | 0.00 | 0.00 | 28 | 1005.5 |
| 20260506224621 | 68 | 102 | 3.5 | 7.8 | 0.00 | 0.00 | 0.00 | 29 | 1005.8 |
| 20260506224121 | 67 | 141 | 2.6 | 8.7 | 0.00 | 0.00 | 0.00 | 29 | 1005.8 |
| 20260506223118 | 67 | 145 | 3.5 | 9.6 | 0.00 | 0.00 | 0.00 | 29 | 1005.8 |
| 20260506222617 | 67 | 124 | 3.5 | 8.7 | 0.00 | 0.00 | 0.00 | 29 | 1006.1 |
| 20260506222118 | 67 | 179 | 3.5 | 8.7 | 0.00 | 0.00 | 0.00 | 28 | 1006.1 |
| 20260506221619 | 67 | 139 | 2.6 | 8.7 | 0.00 | 0.00 | 0.00 | 28 | 1006.3 |
| 20260506221117 | 67 | 155 | 1.7 | 7.8 | 0.00 | 0.00 | 0.00 | 28 | 1006.4 |
| 20260506220617 | 67 | 161 | 1.7 | 7.8 | 0.00 | 0.00 | 0.00 | 28 | 1006.5 |
| 20260506220118 | 67 | 161 | 1.7 | 7.8 | 0.00 | 0.00 | 0.00 | 27 | 1006.6 |
| 20260506215618 | 67 | 0 | 1.7 | 5.2 | 0.00 | 0.00 | 0.00 | 28 | 1006.8 |
| 20260506215119 | 67 | 132 | 2.6 | 8.7 | 0.00 | 0.00 | 0.00 | 28 | 1006.8 |
| 20260506214616 | 67 | 128 | 2.6 | 8.7 | 0.00 | 0.00 | 0.00 | 28 | 1006.7 |
| 20260506214116 | 67 | 109 | 2.6 | 7.8 | 0.00 | 0.00 | 0.00 | 28 | 1006.8 |
| 20260506212615 | 68 | 128 | 3.5 | 11.3 | 0.00 | 0.00 | 0.00 | 28 | 1006.6 |
| 20260506212119 | 68 | 167 | 3.5 | 8.7 | 0.00 | 0.00 | 0.00 | 27 | 1006.4 |
| 20260506211614 | 67 | 82 | 3.5 | 9.6 | 0.00 | 0.00 | 0.00 | 28 | 1006.5 |
| 20260506211115 | 67 | 177 | 3.5 | 9.6 | 0.00 | 0.00 | 0.00 | 28 | 1006.4 |
| 20260506210615 | 67 | 154 | 4.3 | 10.4 | 0.00 | 0.00 | 0.00 | 27 | 1006.4 |
| 20260506210115 | 67 | 100 | 3.5 | 10.4 | 0.00 | 0.00 | 0.00 | 28 | 1006.9 |
| 20260506205619 | 67 | 144 | 4.3 | 11.3 | 0.00 | 0.00 | 0.00 | 28 | 1006.6 |
| 20260506205116 | 67 | 127 | 4.3 | 11.3 | 0.00 | 0.00 | 0.00 | 29 | 1006.7 |
| 20260506204616 | 66 | 170 | 3.5 | 10.4 | 0.00 | 0.00 | 0.00 | 29 | 1006.6 |
| 20260506204112 | 66 | 152 | 4.3 | 13.0 | 0.00 | 0.00 | 0.00 | 29 | 1006.7 |
| 20260506203613 | 66 | 107 | 5.2 | 13.0 | 0.00 | 0.00 | 0.00 | 29 | 1007.1 |
| 20260506202619 | 66 | 138 | 4.3 | 11.3 | 0.00 | 0.00 | 0.00 | 29 | 1006.6 |
| 20260506202112 | 65 | 113 | 5.2 | 11.3 | 0.00 | 0.00 | 0.00 | 30 | 1007.0 |
| 20260506201613 | 65 | 139 | 4.3 | 11.3 | 0.00 | 0.00 | 0.00 | 29 | 1006.9 |
| 20260506201112 | 65 | 146 | 3.5 | 11.3 | 0.00 | 0.00 | 0.00 | 30 | 1007.0 |
| 20260506200117 | 64 | 183 | 3.5 | 9.6 | 0.00 | 0.00 | 0.00 | 30 | 1007.1 |
| 20260506195613 | 63 | 148 | 4.3 | 11.3 | 0.00 | 0.00 | 0.00 | 30 | 1007.3 |
| 20260506195111 | 63 | 111 | 3.5 | 11.3 | 0.00 | 0.00 | 0.00 | 30 | 1007.2 |
| 20260506194620 | 63 | 147 | 3.5 | 9.6 | 0.00 | 0.00 | 0.00 | 30 | 1007.2 |
| 20260506194108 | 63 | 144 | 4.3 | 9.6 | 0.00 | 0.00 | 0.00 | 30 | 1007.5 |
| 20260506193608 | 63 | 227 | 4.3 | 11.3 | 0.00 | 0.00 | 0.00 | 29 | 1006.8 |
| 20260506193113 | 62 | 155 | 4.3 | 11.3 | 0.00 | 0.00 | 0.00 | 30 | 1007.2 |
| 20260506192608 | 61 | 96 | 4.3 | 12.2 | 0.00 | 0.00 | 0.00 | 32 | 1007.5 |
| 20260506192111 | 61 | 136 | 5.2 | 14.8 | 0.00 | 0.00 | 0.00 | 32 | 1007.6 |
| 20260506191107 | 61 | 102 | 5.2 | 12.2 | 0.00 | 0.00 | 0.00 | 32 | 1007.6 |
| 20260506190619 | 61 | 135 | 5.2 | 12.2 | 0.00 | 0.00 | 0.00 | 32 | 1007.9 |
| 20260506190118 | 61 | 152 | 5.2 | 12.2 | 0.00 | 0.00 | 0.00 | 32 | 1008.4 |
| 20260506185608 | 61 | 163 | 5.2 | 10.4 | 0.00 | 0.00 | 0.00 | 33 | 1007.5 |
| 20260506185109 | 61 | 108 | 5.2 | 14.8 | 0.00 | 0.00 | 0.00 | 32 | 1007.3 |
| 20260506184609 | 60 | 101 | 5.2 | 14.8 | 0.00 | 0.00 | 0.00 | 32 | 1007.9 |
| 20260506184106 | 60 | 116 | 5.2 | 12.2 | 0.00 | 0.00 | 0.00 | 34 | 1007.6 |
| 20260506183607 | 60 | 148 | 6.1 | 12.2 | 0.00 | 0.00 | 0.00 | 33 | 1007.9 |
| 20260506182606 | 59 | 133 | 5.2 | 11.3 | 0.00 | 0.00 | 0.00 | 33 | 1007.7 |
| 20260506181107 | 58 | 148 | 5.2 | 11.3 | 0.00 | 0.00 | 0.00 | 34 | 1008.1 |
| 20260506180606 | 58 | 149 | 5.2 | 11.3 | 0.00 | 0.00 | 0.00 | 34 | 1008.2 |
| 20260506180107 | 58 | 156 | 5.2 | 12.2 | 0.00 | 0.00 | 0.00 | 34 | 1008.0 |
| 20260506175606 | 58 | 142 | 6.1 | 13.0 | 0.00 | 0.00 | 0.00 | 34 | 1008.0 |
| 20260506174609 | 57 | 197 | 5.2 | 14.8 | 0.00 | 0.00 | 0.00 | 35 | 1008.3 |
| 20260506174104 | 57 | 174 | 5.2 | 14.8 | 0.00 | 0.00 | 0.00 | 35 | 1008.5 |
| 20260506173604 | 57 | 192 | 5.2 | 14.8 | 0.00 | 0.00 | 0.00 | 35 | 1008.4 |
| 20260506173104 | 57 | 156 | 6.1 | 14.8 | 0.00 | 0.00 | 0.00 | 35 | 1008.8 |
| 20260506172106 | 56 | 155 | 7.0 | 13.9 | 0.00 | 0.00 | 0.00 | 36 | 1008.8 |
| 20260506171104 | 56 | 141 | 6.1 | 14.8 | 0.00 | 0.00 | 0.00 | 36 | 1009.0 |
| 20260506170604 | 56 | 137 | 6.1 | 13.9 | 0.00 | 0.00 | 0.00 | 36 | 1008.8 |
| 20260506170100 | 55 | 131 | 6.1 | 13.9 | 0.00 | 0.00 | 0.00 | 36 | 1009.0 |
| 20260506165602 | 55 | 140 | 5.2 | 12.2 | 0.00 | 0.00 | 0.00 | 37 | 1009.0 |
| 20260506165103 | 55 | 174 | 5.2 | 12.2 | 0.00 | 0.00 | 0.00 | 37 | 1008.8 |
| 20260506163600 | 53 | 135 | 6.1 | 13.9 | 0.00 | 0.00 | 0.00 | 38 | 1009.1 |
| 20260506163102 | 53 | 133 | 5.2 | 13.9 | 0.00 | 0.00 | 0.00 | 38 | 1009.1 |
| 20260506162101 | 52 | 129 | 5.2 | 11.3 | 0.00 | 0.00 | 0.00 | 39 | 1009.2 |
| 20260506161600 | 51 | 145 | 5.2 | 11.3 | 0.00 | 0.00 | 0.00 | 39 | 1009.3 |
| 20260506161101 | 51 | 173 | 5.2 | 11.3 | 0.00 | 0.00 | 0.00 | 39 | 1009.4 |
| 20260506160601 | 51 | 144 | 5.2 | 11.3 | 0.00 | 0.00 | 0.00 | 40 | 1009.6 |
| 20260506160112 | 50 | 162 | 5.2 | 11.3 | 0.00 | 0.00 | 0.00 | 40 | 1009.6 |
| 20260506155602 | 50 | 183 | 6.1 | 11.3 | 0.00 | 0.00 | 0.00 | 41 | 1009.8 |
| 20260506155100 | 49 | 136 | 5.2 | 10.4 | 0.00 | 0.00 | 0.00 | 41 | 1009.8 |
| 20260506154559 | 49 | 154 | 4.3 | 11.3 | 0.00 | 0.00 | 0.00 | 41 | 1009.8 |
| 20260506154100 | 49 | 182 | 4.3 | 11.3 | 0.00 | 0.00 | 0.00 | 42 | 1009.8 |
| 20260506153600 | 48 | 152 | 4.3 | 13.9 | 0.00 | 0.00 | 0.00 | 42 | 1009.9 |
| 20260506153103 | 48 | 128 | 5.2 | 13.9 | 0.00 | 0.00 | 0.00 | 42 | 1010.0 |
| 20260506152600 | 47 | 134 | 5.2 | 13.0 | 0.00 | 0.00 | 0.00 | 43 | 1010.1 |
| 20260506152101 | 47 | 143 | 4.3 | 12.2 | 0.00 | 0.00 | 0.00 | 42 | 1010.1 |
| 20260506151100 | 47 | 139 | 4.3 | 10.4 | 0.00 | 0.00 | 0.00 | 42 | 1010.1 |
| 20260506150111 | 47 | 141 | 4.3 | 10.4 | 0.00 | 0.00 | 0.00 | 42 | 1010.3 |
| 20260506145557 | 46 | 186 | 5.2 | 10.4 | 0.00 | 0.00 | 0.00 | 43 | 1010.6 |
| 20260506145059 | 46 | 167 | 5.2 | 11.3 | 0.00 | 0.00 | 0.00 | 43 | 1010.6 |
| 20260506144558 | 45 | 193 | 4.3 | 11.3 | 0.00 | 0.00 | 0.00 | 43 | 1010.6 |
| 20260506144059 | 45 | 217 | 5.2 | 11.3 | 0.00 | 0.00 | 0.00 | 44 | 1010.7 |
| 20260506143558 | 44 | 178 | 5.2 | 11.3 | 0.00 | 0.00 | 0.00 | 44 | 1010.9 |
| 20260506143058 | 44 | 183 | 5.2 | 10.4 | 0.00 | 0.00 | 0.00 | 45 | 1010.9 |